INMARSAT 3-F5
1 25153U 98006B   03017.80005209 +.00000156 +00000-0 +10000-3 0 08348
2 25153 000.4471 357.2459 0004040 312.9877 119.6121 01.00277306018189
HOT BIRD 4
1 25237U 98013A   03013.80550721  .00000107  00000-0  10000-3 0  3250
2 25237   0.0242 116.4838 0007929 193.6371 105.7449  1.00276095 18185
NOAA 15
1 25338U 98030A   03021.98890094 +.00000296 +00000-0 +14683-3 0 09840
2 25338 098.5505 044.8859 0011245 040.4915 319.7105 14.24232549243875
RESURS O1-N4
1 25394U 98043A   03022.23029399  .00000224  00000-0  11673-3 0  4298
2 25394  98.6369 100.6595 0001485 156.8468 203.2778 14.23867871235644
TMSAT
1 25396U 98043C   03022.19348939 -.00000043  00000-0  00000+0 0  8167
2 25396  98.6326  99.8347 0002935 185.1779 174.9386 14.23501335235632
TECHSAT 1B
1 25397U 98043D   03021.92342065 +.00000088 +00000-0 +58303-4 0 01167
2 25397 098.6275 098.4820 0000569 194.8237 165.2924 14.22953236235567
ASTRA 2A
1 25462U 98050A   03013.00000000  .00000169  00000-0  00000+0 0  5281
2 25462   0.0385 308.7109 0004824 280.8620 270.7162  1.00272094 16073
EUTELSAT W2
1 25491U 98056A   03021.90494214  .00000108  00000-0  00000+0 0  5677
2 25491   0.0253 110.4686 0004017 188.1880 163.9339  1.00272077 15775
HOT BIRD 5
1 25495U 98057A   03020.80132942  .00000162  00000-0  00000+0 0  4935
2 25495   0.0214 137.7841 0003502 169.4083 134.1615  1.00273979 15731
SEDSAT 1
1 25509U 98061B   03021.18758421  .00001396  00000-0  27153-3 0  7614
2 25509  31.4317 313.4374 0357471  55.0350 308.3251 14.27388138221251
PAN SAT
1 25520U 98064B   03021.27649844 +.00003379 +00000-0 +17232-3 0 06369
2 25520 028.4573 052.2544 0006234 047.2734 312.8369 15.13737265233290
ISS (ZARYA)
1 25544U 98067A   03022.48882753  .00026916  00000-0  33733-3 0  6119
2 25544  51.6370  32.1197 0005728  65.0173  67.1711 15.59542344238278
ORSTED
1 25635U 99008B   03021.96496313 +.00000954 +00000-0 +24822-3 0 08138
2 25635 096.4477 014.8107 0146734 056.9988 304.5206 14.44785223205952
SUNSAT
1 25636U 99008C   03021.97956670 +.00000469 +00000-0 +12989-3 0 06621
2 25636 096.4512 013.5355 0150644 063.0101 298.6385 14.42926346205834
UOSAT 12
1 25693U 99021A   03022.52300708  .00000432  00000-0  81735-4 0  6341
2 25693  64.5603  93.5653 0017866 317.3174  42.6540 14.76357064202262
FENGYUN 1C
1 25730U 99025A   03022.22463791  .00000074  00000-0  63552-4 0  7481
2 25730  98.6353  47.6505 0015408  81.7622 278.5296 14.11731594190773
ASTRA 1H
1 25785U 99033A   03013.00000000  .00000139  00000-0  10000-3 0  3685
2 25785   0.0122 319.8851 0002995  65.1991 106.1621  1.00273184 13136
TERRA
1 25994U 99068A   03022.25702592  .00000681  00000-0  16117-3 0  6261
2 25994  98.2049  98.8954 0001019  85.8083 274.3242 14.57100168164692
JAWSAT
1 26061U 00004A   03021.88302735  .00000780  00000-0  27673-3 0  7464
2 26061 100.2112  73.8072 0035156 358.5450   1.5621 14.37793311156557
OPAL
1 26063U 00004C   03021.67482553  .00000238  00000-0  10256-3 0  7030
2 26063 100.2161  71.1875 0037344   5.6692 354.4897 14.35469828156381
ASUSAT
1 26065U 00004E   03022.18982571  .00000275  00000-0  11522-3 0  7144
2 26065 100.2158  71.9396 0037427   5.6993 354.4605 14.35496707156452
GOES 11
1 26352U 00022A   03021.14478063 -.00000033  00000-0  10000-3 0  9868
2 26352   0.0738 109.1473 0004527 168.1586 142.3265  1.00262464  9957
EUTELSAT W4
1 26369U 00028A   03021.91067131  .00000160  00000-0  00000+0 0  3439
2 26369   0.0461  33.8962 0006364 264.3051 186.5523  1.00273737  9773
FENGYUN 2B
1 26382U 00032A   03021.23609307 -.00000321 +00000-0 +00000-0 0 07739
2 26382 000.6368 287.1588 0000407 147.3618 234.9197 01.00262670009420
EUTELSAT W1
1 26487U 00052A   03019.89353010  .00000077  00000-0  10000-3 0  3459
2 26487   0.0166  80.1752 0003955 205.6248 164.6935  1.00272665  8724
ASTRA 2B
1 26494U 00054A   03013.00000000  .00000169  00000-0  00000+0 0  2517
2 26494   0.0178 354.5658 0005000 302.8402 202.8287  1.00276704  8557
NOAA 16
1 26536U 00055A   03021.80238780  .00000085  00000-0  70731-4 0  1755
2 26536  98.9001 330.2967 0011122  28.3978 331.7788 14.11887450120239
SAUDISAT 1A
1 26545U 00057A   03022.09229529  .00001841  00000-0  26246-3 0  4014
2 26545  64.5591 116.3684 0053897 243.0915 116.4702 14.78906903125151
UNISAT
1 26547U 00057C   03021.75453111  .00003008  00000-0  40673-3 0  4202
2 26547  64.5571 119.7453 0060933 245.6901 113.7846 14.79621747125075
TIUNGSAT 1
1 26548U 00057D   03021.61694540 +.00002238 +00000-0 +30014-3 0 04067
2 26548 064.5579 111.0280 0046978 242.6111 117.0179 14.81172711125239
SAUDISAT 1B
1 26549U 00057E   03022.37933080  .00001795  00000-0  26186-3 0  6724
2 26549  64.5503 119.4575 0058251 243.3032 116.2088 14.77848532125127
AMSAT OSCAR 40
1 26609U 00072B   03018.40123252 -.00000010  00000-0  10000-3 0  3050
2 26609   7.9708  69.8773 7935358 134.4243 325.7472  1.25596623 10197
GOES 12
1 26871U 01031A   03021.29534620 -.00000105  00000-0  10000-3 0  7838
2 26871   0.3924 277.2459 0004193 352.5224 212.9926  1.00363683  5556
PCSAT
1 26931U 01043C   03021.95128415 +.00000316 +00000-0 +15704-3 0 04029
2 26931 067.0479 326.7113 0005238 259.6058 100.4444 14.29100540068403
SAPPHIRE
1 26932U 01043D   03022.21272428  .00000194  00000-0  10869-3 0  3776
2 26932  67.0580 325.7482 0005837 242.4423 117.6082 14.29283859 68465
ENVISAT
1 27386U 02009A   03022.43930043 -.00000262  00000-0 -81027-4 0  8689
2 27386  98.5487  91.3821 0000856  84.5436 275.5860 14.32242837 46865
IDEFIX/ARIANE 42P
1 27422U 02021B   03022.20515276  .00000335  00000-0  15319-3 0  2140
2 27422  98.6994 101.5284 0011985 227.1604 132.8570 14.27955131 37555
NOAA 17
1 27453U 02032A   03021.93787422 +.00000361 +00000-0 +17897-3 0 02792
2 27453 098.7613 093.2877 0012650 077.9641 282.2953 14.23276753030038
HOT BIRD 6
1 27499U 02038A   03013.80550721  .00000106  00000-0  10000-3 0   665
2 27499   0.0928  32.8693 0008090 290.3889  92.5421  1.00271722  1476
RUBIN 2
1 27605U 02058A   03021.78141330  .00000964  00000-0  17563-3 0   353
2 27605  64.5531 281.6169 0030357 122.1373 238.2669 14.71388873  4725
STS-107
1 27647U 03003A   03022.58333333  .00062060  69655-5  12331-3 0   286
2 27647  39.0164 189.6316 0010349  44.8390 322.4470 15.99247182   943
